Location: Beneden-Haastrecht
(52.0012°N, 4.7557°E)
Time: 12:10:22
(UTC+00:00)

YAOGAN 1 - Pass Details

Date: 24 October 2020
Orbit: 618 x 620 km, 97.9° (Epoch: 25 November)

Event Time Altitude Azimuth Distance (km) Brightness Sun altitude
Rises 17:26:50 0° 142° (SE) 2,890 5.7 -9.8°
Reaches altitude 10° 17:29:07 10° 134° (SE) 1,988 4.8 -10.1°
Maximum altitude 17:33:07 38° 67° (ENE) 951 3.0 -10.7°
Drops below altitude 10° 17:37:09 10° 359° (N) 2,001 5.1 -11.3°
Sets 17:39:27 0° 352° (N) 2,912 6.1 -11.7°
